Location: Bonneuil
(46.1010°N, 2.9693°E)
Time: 22:00:05
(UTC+00:00)

Cosmos 1980 Rocket - Pass Details

Date: 09 April 2020
Orbit: 829 x 850 km, 71.0° (Epoch: 25 May)

Event Time Altitude Azimuth Distance (km) Brightness Sun altitude
Rises 21:36:33 0° 335° (NNW) 3,389 6.5 -28.3°
Reaches altitude 10° 21:39:02 10° 339° (NNW) 2,454 5.5 -28.6°
Enters shadow 21:44:07 61° 32° (NNE) 952 2.4 -29.1°
